Simultaneous Nadir Overpasses (SNOs) Predictions

Prediction of SNOs between AQUA and METOP-A Satellite Orbit:

Table of predicted SNOs for the next 14.0 days since TLE Epoch: 8/4/2017
Index Date (AQUA) Time (AQUA) Lat,Lon (AQUA) SZA (AQUA ) Date (METOP-A) Time (METOP-A) Lat,Lon (METOP-A) SZA (METOP-A ) Distance(km) Time Diff (sec)
1 08/07/2017 03:46:00 -73.91, -62.50 122.41 08/07/2017 03:45:31 -73.93, -62.54 122.38 2.63 29
2 08/07/2017 04:35:29 74.02, 104.90 57.72 08/07/2017 04:36:09 74.00, 104.96 57.70 2.58 40
3 08/09/2017 23:20:16 -73.95, 3.84 121.56 08/09/2017 23:19:51 -73.96, 3.94 121.55 2.93 25
4 08/10/2017 00:09:44 74.01, 171.36 58.51 08/10/2017 00:10:29 74.02, 171.43 58.52 2.71 45
5 08/12/2017 18:54:31 -73.95, 70.29 120.73 08/12/2017 18:54:12 -73.94, 70.28 120.74 1.57 19
6 08/12/2017 19:43:59 74.01,-122.20 59.34 08/12/2017 19:44:50 74.00,-122.24 59.33 1.59 51
7 08/15/2017 13:39:09 73.39, -29.69 59.52 08/15/2017 13:38:02 73.34, -32.01 59.59 74.05 67
8 08/15/2017 14:28:45 -73.95, 136.72 119.86 08/15/2017 14:28:31 -73.96, 136.74 119.86 0.92 14
9 08/15/2017 15:18:13 74.01, -55.77 60.21 08/15/2017 15:19:09 74.01, -55.78 60.21 0.88 56
10 08/18/2017 09:13:27 73.60, 36.28 60.65 08/18/2017 09:12:17 73.56, 34.89 60.67 44.16 70
11 08/18/2017 10:03:00 -73.96,-156.86 118.96 08/18/2017 10:02:51 -73.98,-156.80 118.94 2.60 9
12 08/18/2017 10:52:28 74.02, 10.65 61.11 08/18/2017 10:53:29 74.03, 10.67 61.12 1.87 61




NCC Satellite Simultaneous Nadir Overpasses (SNOs) Prediction Service
